SCP
0 0 0 0 0 0 0 0 0 0 0 0 0 0 0 0 0 0 0 0 0 0 0 0 0 1 1 1 1 1 1 0 0 0 0 0 0 0 0 0 0 0 0 0 0 0 0 0 0
0 0 0 0 0 0 0 0 0 0 0 0 0 0 0 0 0 0 0 0 0 0 0 0 0 1 1 1 1 1 1 0 0 0 0 0 0 0 0 0 0 0 0 0 0 0 0 0 0
0 0 0 0 0 0 0 0 0 0 0 0 0 0 0 0 0 0 0 0 0 0 0 0 1 1 1 1 1 1 1 0 0 0 0 0 0 0 0 0 0 0 0 0 0 0 0 0 0
0 0 0 0 0 0 0 0 0 0 0 0 0 0 0 0 0 0 0 0 0 0 0 0 0 1 1 1 1 1 1 1 1 0 0 0 0 0 0 0 0 0 0 0 0 0 0 0 0
0 0 0 0 0 0 0 0 0 0 0 0 0 0 0 0 0 0 0 0 0 0 0 0 0 0 0 1 1 1 1 1 1 0 0 0 0 0 0 0 0 0 0 0 0 0 0 0 0
0 0 0 0 0 0 0 0 0 0 0 0 0 0 0 0 0 0 0 0 0 0 0 0 0 0 0 0 0 0 0 0 0 0 0 0 0 0 0 0 0 0 0 0 0 0 0 0 0
0 0 0 0 0 0 0 0 0 0 0 0 0 0 0 0 0 0 0 0 0 0 0 0 0 0 0 0 0 0 0 0 0 0 0 0 0 1 1 1 0 0 0 0 0 0 0 0 0
0 0 0 0 0 0 0 0 0 0 0 0 0 0 0 0 0 0 0 0 0 0 0 0 0 0 0 0 0 0 0 0 0 0 0 0 0 0 0 0 0 0 0 0 0 0 0 0 0
0 0 0 0 0 0 0 0 0 0 0 0 0 0 0 0 0 0 0 0 0 0 0 0 0 0 0 0 0 0 0 0 0 0 0 0 0 0 0 0 0 0 0 0 0 0 0 0 0
0 0 0 0 0 0 0 0 0 0 0 0 0 0 0 0 0 0 0 0 0 0 0 0 0 0 0 0 0 0 0 0 0 0 0 0 0 0 0 0 0 0 0 0 0 0 0 0 0
0 0 0 0 0 0 0 0 0 0 0 0 0 0 0 0 0 0 0 0 0 0 0 0 0 0 0 0 0 0 0 0 0 0 0 0 0 0 0 0 0 0 0 0 0 0 0 0 0
0 0 0 0 0 0 0 0 0 0 0 0 0 0 0 0 0 0 0 0 0 0 0 0 0 0 0 0 0 0 0 0 0 0 0 0 0 0 0 0 0 0 0 0 0 0 0 0 0
0 0 0 0 0 0 0 0 0 0 0 0 0 0 0 0 0 0 0 0 0 0 0 -0 0 0 0 0 0 0 0 0 0 0 0 0 0 0 0 0 0 0 0 0 0 0 0 0 0
0 0 0 0 0 0 0 0 0 0 0 0 0 0 0 0 0 0 0 0 0 0 0 -0 0 0 0 0 0 0 0 0 0 0 0 0 0 0 0 0 0 0 0 0 0 0 0 0 0
0 0 0 0 0 0 0 0 0 0 0 0 0 0 0 0 0 0 0 0 0 0 0 0 0 0 0 0 0 0 0 0 0 0 0 0 0 0 0 0 0 0 0 0 0 0 0 0 0
0 0 0 0 0 0 0 0 0 0 0 0 0 0 0 0 0 0 0 0 0 0 0 0 0 0 0 0 0 0 0 0 0 0 0 0 0 0 0 0 0 0 0 0 0 0 0 0 0
0 0 0 0 0 0 0 0 0 0 0 0 0 0 0 0 0 0 0 0 0 0 0 0 0 0 0 0 0 0 0 0 0 0 0 0 0 0 0 0 0 0 0 0 0 0 0 0 0
0 0 0 0 0 0 0 0 0 0 0 0 0 0 0 0 0 0 0 0 0 0 0 0 0 0 0 0 0 0 0 0 0 0 0 0 0 0 0 0 0 0 0 0 0 0 0 0 0
0 0 0 0 0 0 0 0 0 0 0 0 0 0 0 0 0 0 0 0 0 0 0 0 0 0 0 0 0 0 0 0 0 0 0 0 0 0 0 0 0 0 0 0 0 0 0 0 0
0 0 0 0 0 0 0 0 0 0 0 0 0 0 0 0 0 0 0 0 0 0 0 0 0 0 0 0 0 0 0 0 0 0 0 0 0 0 0 0 0 0 0 0 0 0 0 0 0
0 0 0 0 0 0 0 0 0 0 0 0 0 0 0 0 0 0 0 0 0 0 0 0 0 0 0 0 0 0 0 0 0 0 0 0 0 0 0 0 0 0 0 0 0 0 0 0 0
0 0 0 0 0 0 0 0 0 0 0 0 0 0 0 0 0 0 0 0 0 0 0 0 0 0 0 0 0 0 0 0 0 0 0 0 0 0 0 0 0 0 0 0 0 0 0 0 0
0 0 0 0 0 0 0 0 0 0 0 0 0 0 0 0 0 0 0 0 0 0 0 0 0 0 0 0 0 0 0 0 0 0 0 0 0 0 0 0 0 0 0 0 0 0 0 0 0
0 0 0 0 0 0 0 0 0 0 0 0 0 0 0 0 0 0 0 0 0 0 0 0 0 0 0 0 0 0 0 0 0 0 0 0 0 0 0 0 0 0 0 0 0 0 0 0 0
0 0 0 0 0 0 0 0 0 0 0 0 0 0 0 0 0 0 0 0 0 0 0 0 0 0 0 0 0 0 0 0 0 0 0 0 0 0 0 0 0 0 0 0 0 0 0 0 0
0 0 0 0 0 0 0 0 0 0 0 0 0 0 0 0 0 0 0 0 0 0 0 0 0 0 0 0 0 0 0 0 0 0 0 0 0 0 0 0 0 0 0 0 0 0 0 0 0
0 0 0 0 0 0 0 0 0 0 0 0 0 0 0 0 0 0 0 0 0 0 0 0 0 0 0 0 0 0 0 0 0 0 0 0 0 0 0 0 0 0 0 0 0 0 0 0 0
0 0 0 0 0 0 0 0 0 0 0 0 0 0 0 0 0 0 0 0 0 0 0 0 0 0 0 0 0 0 0 0 0 0 0 0 0 0 0 0 0 0 0 0 0 0 0 0 0
0 0 0 0 0 0 0 0 -0 0 0 0 0 0 0 0 0 0 0 0 0 0 0 0 0 0 0 0 0 0 0 0 0 0 0 0 0 0 0 0 0 0 0 0 0 0 0 0 0
0 0 0 0 0 0 0 0 0 -0 0 0 0 0 0 0 0 0 0 0 0 0 0 0 0 0 0 0 0 0 0 0 0 0 0 0 0 0 0 0 0 0 0 0 0 0 0 0 0
Wind_Speed
9 9 7 2 3 5 7 5 3 1 2 5 6 4 4 4 4 6 4 6 5 5 6 5 5 4 4 4 5 4 6 8 9 9 9 10 10 10 10 9 9 9 9 9 10 10 10 11 10
9 6 4 3 4 6 5 6 4 2 5 5 4 3 2 3 6 7 5 5 5 6 6 5 4 3 3 4 4 4 5 7 8 9 9 10 10 10 10 10 9 9 8 8 9 10 10 10 10
9 6 4 3 5 5 1 1 4 6 6 2 1 2 3 3 5 5 4 4 5 5 5 6 5 3 2 3 3 4 4 5 7 8 9 9 10 10 11 10 10 9 8 8 9 10 10 10 9
4 3 3 5 9 5 2 4 5 5 4 1 1 0 1 5 4 5 5 6 5 4 4 5 5 3 1 1 2 3 4 4 5 7 7 8 10 11 11 10 9 9 9 9 10 10 10 10 9
3 3 5 7 9 5 1 4 3 1 2 2 1 1 1 4 6 6 6 6 4 4 3 3 4 2 1 0 2 3 4 4 5 6 7 8 9 10 10 10 10 10 10 10 10 10 10 10 9
3 3 5 7 7 5 3 2 1 2 1 1 1 2 0 4 7 6 6 5 4 3 2 2 2 1 1 2 2 3 4 4 4 5 7 8 7 8 9 10 11 11 11 11 11 11 10 10 9
4 4 6 6 5 4 3 3 0 2 3 1 2 2 1 5 6 5 5 5 4 3 2 1 1 1 1 2 3 3 4 4 5 5 6 7 7 7 9 10 11 11 11 11 11 11 10 10 9
4 3 6 5 5 2 3 3 1 3 3 3 2 2 0 3 5 4 4 4 4 3 2 2 1 1 2 2 4 4 5 6 6 6 6 6 7 7 8 9 11 11 11 11 11 11 10 9 9
4 4 5 3 2 2 4 1 1 2 4 3 2 2 3 5 5 4 4 4 4 4 3 2 2 2 2 3 4 5 6 7 7 5 6 6 5 5 6 9 10 11 11 11 11 11 10 9 8
3 4 3 3 5 3 3 2 2 2 5 4 3 3 3 4 4 4 4 4 4 4 4 3 3 3 3 3 2 3 3 4 5 4 5 5 5 5 7 9 11 12 11 11 12 11 10 7 4
4 3 1 2 5 5 3 3 3 4 5 4 4 4 4 5 5 5 5 4 4 5 5 4 4 3 3 2 2 2 2 2 4 5 5 5 4 4 4 4 5 7 9 7 8 8 6 6 5
3 4 3 1 2 3 4 4 5 6 6 5 5 6 6 6 5 5 5 5 4 5 5 5 4 4 3 3 3 2 2 2 3 4 5 4 3 3 4 4 5 5 5 5 5 5 6 6 6
6 4 3 2 3 4 6 7 7 8 7 6 6 6 6 6 5 5 5 5 5 5 5 5 5 5 4 3 3 3 3 3 3 3 4 4 3 4 4 4 4 5 4 5 5 6 6 6 6
2 3 4 4 5 5 6 7 6 6 5 5 6 5 5 5 5 5 4 5 5 5 5 5 5 5 4 3 3 3 3 3 3 3 4 4 3 3 4 4 5 5 4 5 6 6 6 5 5
3 4 6 6 6 3 3 7 7 6 5 5 5 5 5 4 4 4 4 5 5 6 6 5 5 4 3 4 4 3 3 3 3 3 4 4 4 4 4 4 4 4 5 5 5 6 5 4 5
4 5 4 4 5 4 2 6 2 0 2 4 4 4 4 3 3 3 4 5 5 5 5 5 6 4 3 3 4 3 3 3 3 3 3 4 5 5 4 4 4 4 4 4 4 4 4 4 4
4 4 3 2 5 4 5 6 3 3 3 4 4 4 4 4 4 5 5 5 4 5 5 5 5 4 4 3 4 3 3 3 3 3 3 4 5 5 4 4 4 4 4 4 4 4 4 4 4
2 3 3 2 2 3 6 7 4 3 4 4 3 3 4 4 5 5 5 5 4 4 4 5 5 4 3 2 2 2 3 2 2 2 3 3 4 5 5 4 4 4 4 4 4 4 4 4 4
2 4 5 4 1 3 7 8 5 3 3 2 2 3 4 4 5 5 5 5 5 5 5 4 4 4 3 2 2 2 3 2 2 3 3 4 4 4 4 4 4 4 4 5 5 4 4 4 3
4 5 5 3 2 4 7 8 5 2 1 1 2 3 4 6 6 7 7 6 6 6 5 5 4 5 4 3 2 2 2 2 3 3 3 4 4 4 4 4 4 4 4 4 5 4 4 3 4
4 4 3 4 6 5 5 5 2 2 2 2 3 3 4 5 7 8 8 7 7 6 6 5 5 5 4 3 2 2 2 2 2 2 2 3 3 3 3 4 4 4 4 4 5 6 5 4 4
3 2 3 4 4 3 2 4 3 3 1 2 3 3 4 5 6 7 8 9 8 7 5 5 5 5 4 4 2 2 3 3 3 2 2 2 3 3 4 4 4 4 4 4 5 4 4 5 4
2 4 5 5 4 4 4 4 4 3 1 2 3 4 4 5 6 7 8 8 8 7 5 5 5 5 4 3 2 2 3 2 1 1 2 2 2 3 3 3 3 3 3 4 4 4 4 4 4
3 4 5 3 1 4 5 4 3 1 0 2 3 3 4 5 6 7 8 7 7 7 6 5 4 4 3 2 2 2 2 2 2 2 2 2 1 1 2 2 2 2 3 3 4 4 4 4 4
1 1 1 1 3 4 3 3 3 2 3 2 3 3 3 4 5 7 8 8 8 8 7 6 5 4 4 2 2 2 2 2 2 2 2 1 1 1 2 2 1 1 2 3 3 4 4 4 4
1 1 1 2 2 2 1 3 1 5 4 3 2 3 4 5 5 6 7 7 7 8 7 6 6 5 4 3 2 2 3 2 1 1 2 1 1 1 2 2 1 0 1 1 2 2 3 3 3
1 0 1 2 3 3 4 2 3 3 3 2 3 3 4 4 5 6 7 7 7 7 7 6 5 5 4 3 2 2 2 2 1 2 2 1 1 2 2 2 1 0 1 1 1 2 3 3 3
1 2 1 2 3 3 3 2 1 1 0 1 2 3 4 4 5 6 6 7 6 6 6 6 5 5 4 3 2 2 2 2 2 2 2 2 2 2 2 1 1 1 1 2 2 2 2 3 3
3 2 2 3 3 2 3 2 2 3 2 0 2 2 3 4 5 5 5 6 6 6 6 6 5 5 4 4 3 3 3 3 3 2 2 2 2 2 2 1 1 1 1 1 1 2 2 3 3
1 2 1 1 3 2 3 4 2 4 3 1 0 2 2 3 3 4 4 5 6 6 7 6 6 5 5 4 4 3 3 3 3 3 3 2 2 3 2 1 1 1 0 0 1 1 2 3 3
Wind_Direction
281 260 246 229 224 228 236 233 226 103 40 29 19 4 356 4 28 87 103 34 30 69 89 103 97 99 108 117 119 136 157 165 170 170 171 173 170 166 162 160 157 151 148 145 140 134 128 124 120
279 249 234 226 231 225 227 216 208 89 68 38 17 339 331 55 76 92 79 31 31 65 84 80 86 97 110 121 130 135 150 166 174 178 177 179 178 175 171 168 164 157 154 149 142 135 132 129 127
270 252 229 218 229 234 241 109 102 91 76 52 29 341 338 29 60 77 68 30 33 57 79 81 74 77 108 129 136 149 152 164 173 180 183 184 185 183 178 174 168 162 159 154 147 141 139 136 134
241 228 247 241 236 243 285 57 55 87 100 99 326 262 88 54 52 65 52 27 25 46 63 87 78 64 75 126 149 159 165 174 178 179 182 189 191 190 183 175 168 163 160 158 152 149 147 143 142
242 232 223 233 238 244 307 55 55 87 136 166 238 270 61 74 72 54 36 15 12 28 48 94 86 74 57 173 185 179 181 185 189 188 189 190 194 195 186 177 170 165 164 161 157 154 152 150 151
229 234 229 228 227 221 183 97 77 263 235 196 221 275 79 81 61 34 20 355 354 11 31 88 110 107 177 217 210 205 202 198 199 203 201 196 194 195 188 181 174 171 171 168 164 161 160 159 160
245 236 245 249 237 215 139 102 161 286 276 323 13 302 139 71 52 30 6 349 344 352 359 340 201 192 205 220 225 215 215 211 211 213 208 199 195 191 189 184 179 177 177 173 170 168 168 169 169
280 273 252 250 245 229 87 90 49 315 303 360 6 271 326 49 41 20 351 341 336 333 329 314 292 262 241 232 232 224 220 218 218 217 210 201 197 194 190 187 183 181 178 176 174 173 173 173 174
282 256 246 251 271 88 83 67 28 346 295 285 279 279 336 353 358 350 330 327 325 324 319 307 291 273 261 243 237 226 221 216 213 209 206 199 198 197 192 193 186 184 181 180 178 179 178 175 179
237 243 246 359 11 28 40 356 337 285 266 264 267 282 306 312 312 306 303 306 313 313 309 306 296 279 275 264 250 230 226 213 206 201 198 199 203 200 196 189 186 185 182 183 184 183 180 177 179
230 250 292 3 11 1 346 305 285 273 264 264 274 292 308 306 301 301 297 295 298 304 305 306 302 284 267 261 247 232 225 219 216 211 203 202 202 191 187 171 178 184 182 184 186 184 189 192 186
238 251 274 312 4 322 301 293 281 262 270 301 311 310 301 296 293 293 294 294 292 294 295 296 292 283 264 255 248 236 226 218 215 215 209 201 197 189 182 178 174 180 186 185 183 190 197 201 196
226 243 260 280 272 269 271 266 272 268 277 286 285 285 285 289 290 291 290 293 294 290 289 293 287 275 269 255 245 240 231 226 225 217 210 205 194 192 188 184 181 183 185 184 185 194 197 202 204
236 261 267 256 249 251 260 268 258 260 268 273 272 276 280 285 292 295 300 295 292 290 290 285 279 272 266 261 249 240 229 230 231 221 216 206 197 193 189 187 184 187 186 188 189 195 197 200 200
260 248 247 229 220 214 277 268 238 248 266 270 274 282 283 283 291 299 302 298 296 294 292 287 277 268 266 269 263 255 235 225 228 225 219 213 198 194 194 192 187 190 187 192 193 197 195 198 199
223 234 232 190 192 181 216 268 278 291 279 283 293 294 295 294 296 308 309 303 298 297 295 292 290 285 266 264 269 262 247 237 228 225 218 214 207 195 194 197 193 192 187 188 196 192 192 198 197
201 234 240 189 181 195 227 265 301 330 310 304 307 314 324 331 342 345 333 325 317 312 307 300 286 277 266 257 255 259 257 251 241 229 221 214 209 197 189 196 196 191 189 186 198 197 187 196 202
214 248 251 250 196 239 253 265 279 293 283 286 314 337 337 339 343 342 341 338 323 317 313 309 304 291 278 258 247 248 254 249 246 234 230 223 215 205 193 194 196 192 192 189 188 199 193 193 199
299 275 271 275 294 293 262 272 281 285 289 321 342 342 340 348 351 351 347 341 332 331 325 314 305 295 288 267 256 248 251 249 247 235 229 227 218 210 199 198 199 194 196 194 188 192 196 201 191
263 271 280 295 333 294 273 277 271 245 228 18 3 4 4 358 355 352 346 341 338 330 325 323 317 306 294 279 264 251 249 244 238 238 232 226 217 209 205 199 199 201 197 195 193 187 195 200 187
273 263 284 311 315 270 277 281 199 147 110 40 25 24 16 1 352 346 340 342 341 335 332 325 319 314 308 298 284 274 270 262 243 240 235 228 217 212 205 207 207 205 197 198 199 194 192 199 203
282 334 313 300 305 288 289 288 232 178 138 20 14 25 15 6 357 348 344 344 341 333 329 327 319 314 308 300 284 261 251 251 254 251 242 238 224 218 211 216 217 212 202 200 204 200 196 189 198
287 316 289 277 277 288 238 245 263 153 217 348 9 15 7 8 360 349 344 340 336 332 330 323 318 317 310 298 284 273 267 268 281 283 259 247 237 229 212 210 212 216 205 199 196 203 204 197 196
284 290 272 238 248 264 219 212 268 160 174 352 7 10 6 6 358 351 344 342 340 336 331 326 324 322 323 322 321 299 282 284 287 280 264 254 243 239 236 215 204 216 210 198 196 196 200 206 208
279 330 336 223 223 246 179 199 251 89 81 56 14 0 7 8 359 351 347 348 345 341 340 337 339 342 343 343 336 313 296 278 273 284 274 271 275 270 258 254 229 224 219 199 190 191 198 203 203
290 285 334 293 282 314 249 229 188 91 81 62 34 16 14 7 357 349 349 347 342 339 341 344 346 346 347 353 344 320 295 282 279 299 287 279 277 279 272 259 246 268 265 203 180 183 200 202 206
307 285 9 290 280 260 239 195 128 79 67 42 16 12 6 3 358 353 352 348 347 346 346 343 352 359 3 1 348 333 316 318 331 324 308 300 307 285 255 241 223 230 260 220 192 191 200 200 210
280 320 306 278 303 292 276 225 220 130 312 358 1 355 360 7 360 354 354 353 352 351 347 354 4 0 354 348 348 355 354 357 354 338 343 342 325 323 283 260 207 196 255 223 199 205 202 202 218
190 219 251 267 268 285 295 294 79 142 144 11 337 348 6 1 355 356 354 352 356 358 1 4 5 1 1 1 4 9 4 8 7 2 357 351 351 337 303 273 212 188 257 230 198 239 223 216 224
252 241 218 272 289 263 272 275 92 103 121 134 301 347 2 358 356 355 355 358 1 3 3 4 4 5 5 6 8 13 15 19 18 6 355 0 355 339 343 333 25 24 353 118 176 251 247 233 229